Location: Newark
(46.3567°N, 6.1428°E)
Time: 16:31:43
(UTC+00:00)

First-Move - Pass Details

Date: 22 September 2019
Orbit: 578 x 669 km, 97.6° (Epoch: 22 October)

Event Time Altitude Azimuth Distance (km) Brightness Sun altitude
Rises 04:44:48 0° 35° (NE) 2,822 ? -7.2°
Reaches altitude 10° 04:48:35 10° 71° (ENE) 1,930 ? -6.5°
Maximum altitude 04:49:51 11° 88° (E) 1,858 ? -6.3°
Drops below altitude 10° 04:51:07 10° 106° (ESE) 1,939 ? -6.1°
Sets 04:54:56 0° 142° (SE) 2,858 ? -5.4°
